Location: Unspecified
(0.0000°N, 0.0000°E)
Time: 20:12:26
(UTC+02:00)

Altair - All Passes

Search period start: 18 April 2014 00:00
Search period end: 28 April 2014 00:00
Orbit: 1501 x 1683 km, 47.2° (Epoch: 16 April)

Date Brightness Start Highest point End Pass type
(mag) Time Alt. Az. Time Alt. Az. Time Alt. Az.
18 Apr - 03:49:42 10° SSE 03:53:33 13° SE 03:57:21 10° ESE visible
18 Apr - 05:49:03 10° SSW 05:58:55 70° SE 06:08:22 10° NE visible
18 Apr - 07:56:14 10° W 08:03:32 24° NW 08:10:40 10° N daylight
18 Apr - 16:35:25 10° N 16:43:07 29° NE 16:51:00 10° ESE daylight
18 Apr - 18:38:25 10° NW 18:47:40 60° SW 18:57:20 10° SSE daylight
19 Apr - 03:26:12 10° SSE 03:28:15 11° SE 03:30:17 10° SE visible
19 Apr - 05:23:58 10° SSW 05:33:47 63° SE 05:43:10 10° NE visible
19 Apr - 07:30:33 10° WSW 07:38:22 27° NW 07:45:58 10° N visible
19 Apr - 16:10:42 10° N 16:17:57 25° NE 16:25:22 10° E daylight
19 Apr - 18:13:13 10° NW 18:22:31 67° SW 18:32:15 10° SSE daylight
19 Apr - 20:25:00 10° WSW 20:27:56 12° SW 20:30:56 10° SSW visible
20 Apr - 04:58:55 10° SSW 05:08:38 56° SE 05:17:56 10° NE visible
20 Apr - 07:04:57 10° WSW 07:13:12 31° NW 07:21:13 10° N visible
20 Apr - 15:46:03 10° N 15:52:47 22° NE 15:59:38 10° E daylight
20 Apr - 17:48:02 10° NW 17:57:23 74° SW 18:07:10 10° SSE daylight
20 Apr - 19:58:22 10° WSW 20:02:39 14° SW 20:07:01 10° SSW daylight
21 Apr - 04:33:53 10° SSW 04:43:28 50° SE 04:52:39 10° ENE visible
21 Apr - 06:39:24 10° WSW 06:48:02 35° NW 06:56:25 10° NNE visible
21 Apr - 15:21:29 10° N 15:27:36 19° NE 15:33:48 10° E daylight
21 Apr - 17:22:54 10° NW 17:32:15 83° SW 17:42:02 10° SE daylight
21 Apr - 19:32:10 10° WSW 19:37:23 16° SW 19:42:43 10° S daylight
22 Apr - 04:08:53 10° SSW 04:18:18 45° SE 04:27:20 10° ENE visible
22 Apr - 06:13:55 10° WSW 06:22:53 40° NW 06:31:34 10° NNE visible
22 Apr - 14:57:01 10° N 15:02:24 17° NE 15:07:50 10° E daylight
22 Apr - 16:57:47 10° NW 17:07:08 89° NE 17:16:53 10° SE daylight
22 Apr - 19:06:11 10° W 19:12:08 18° SW 19:18:14 10° S daylight
23 Apr - 03:43:55 10° SSW 03:53:07 40° SE 04:01:58 10° ENE visible
23 Apr - 05:48:29 10° WSW 05:57:44 45° NW 06:06:40 10° NNE visible
23 Apr - 14:32:45 10° NNE 14:37:11 14° NE 14:41:40 10° ENE daylight
23 Apr - 16:32:43 10° NW 16:42:01 81° NE 16:51:42 10° SE daylight
23 Apr - 18:40:22 10° W 18:46:53 21° SW 18:53:38 10° S daylight
24 Apr - 03:18:59 10° SSW 03:27:56 36° SE 03:36:34 10° ENE visible
24 Apr - 05:23:06 10° WSW 05:32:35 50° NW 05:41:45 10° NNE visible
24 Apr - 14:08:49 10° NNE 14:11:57 12° NE 14:15:07 10° ENE daylight
24 Apr - 16:07:40 10° NNW 16:16:54 73° NE 16:26:29 10° SE daylight
24 Apr - 18:14:39 10° W 18:21:40 23° SW 18:28:56 10° S daylight
25 Apr - 02:54:06 10° S 03:02:44 32° SE 03:11:05 10° ENE visible
25 Apr - 04:57:45 10° SW 05:07:27 56° NW 05:16:47 10° NNE visible
25 Apr - 15:42:39 10° NNW 15:51:47 65° NE 16:01:14 10° SE daylight
25 Apr - 17:49:02 10° W 17:56:28 26° SW 18:04:10 10° S daylight
26 Apr - 02:29:15 10° S 02:37:31 29° SE 02:45:33 10° ENE visible
26 Apr - 04:32:27 10° SW 04:42:18 63° NW 04:51:48 10° NNE visible
26 Apr - 06:46:53 10° NW 06:47:30 10° NW 06:48:07 10° NW visible
26 Apr - 15:17:40 10° NNW 15:26:40 58° NE 15:35:57 10° SE daylight
26 Apr - 17:23:30 10° WNW 17:31:17 30° SW 17:39:22 10° S daylight
27 Apr - 02:04:27 10° S 02:12:18 25° SE 02:19:57 10° E night (unlit)
27 Apr - 04:07:10 10° SW 04:17:09 71° NW 04:26:47 10° NNE visible
27 Apr - 06:18:48 10° WNW 06:22:14 12° NW 06:25:38 10° NNW visible
27 Apr - 14:52:43 10° NNW 15:01:33 51° NE 15:10:39 10° SE daylight
27 Apr - 16:58:01 10° WNW 17:06:06 33° SW 17:14:30 10° SSE daylight
